This demonstration page uses our WeatherBlox Daily Observations layout. Learn more.

Left ArrowRight Arrow

Hourly Observations for April 21, 2021

Temp ( °F °C ) Dew Point ( °F °C ) Humidity (%) Winds ( mph kmh ) Pressure ( in mb ) Visibility ( mi km ) Precip ( " mm )
12:53 am 00:53 Partly Cloudy 59 15 46 7.8 62 62 SW 3 6 29.92 1013 10 16 0.00 0.00
1:53 am 01:53 Mostly Clear 56 13.3 48 8.9 75 75 SW 3 6 29.92 1013 10 16 0.00 0.00
2:53 am 02:53 Clear 55 12.8 47 8.3 74 74 Calm 29.91 1013 10 16 0.00 0.00
3:53 am 03:53 Clear 54 12.2 47 8.3 77 77 Calm 29.89 1012 10 16 0.00 0.00
4:53 am 04:53 Clear 52 11.1 47 8.3 83 83 SW 3 6 29.90 1013 10 16 0.00 0.00
5:53 am 05:53 Clear 51 10.6 47 8.3 86 86 SSW 5 7 29.91 1013 10 16 0.00 0.00
6:53 am 06:53 Clear 54 12.2 43 6.1 67 67 WNW 12 19 29.93 1014 10 16 0.00 0.00
7:53 am 07:53 Sunny 53 11.7 42 5.6 66 66 NNW 14 22 29.96 1015 10 16 0.00 0.00
8:53 am 08:53 Sunny 52 11.1 39 3.9 61 61 NNW 10 17 29.99 1016 10 16 0.00 0.00
9:53 am 09:53 Mostly Sunny 53 11.7 38 3.3 57 57 NW 15 24 30.01 1016 10 16 0.00 0.00
10:53 am 10:53 Sunny 54 12.2 38 3.3 55 55 NW 14 22 30.03 1017 10 16 0.00 0.00
11:53 am 11:53 Sunny 54 12.2 36 2.2 51 51 NW 15 24 30.05 1018 10 16 0.00 0.00
12:53 pm 12:53 Partly Cloudy 54 12.2 35 1.7 49 49 NNW 15 24 30.06 1018 10 16 0.00 0.00
1:53 pm 13:53 Sunny 56 13.3 31 -0.6 39 39 NW 17 28 30.05 1018 10 16 0.00 0.00
2:53 pm 14:53 Sunny 55 12.8 31 -0.6 40 40 NNW 10 17 30.05 1018 10 16 0.00 0.00
3:53 pm 15:53 Sunny 55 12.8 28 -2.2 35 35 NW 18 30 30.06 1018 10 16 0.00 0.00
4:53 pm 16:53 Sunny 56 13.3 28 -2.2 34 34 WNW 17 28 30.06 1018 10 16 0.00 0.00
5:53 pm 17:53 Sunny 55 12.8 25 -3.9 31 31 NW 17 28 30.06 1018 10 16 0.00 0.00
6:53 pm 18:53 Sunny 53 11.7 25 -3.9 34 34 NNW 14 22 30.07 1018 10 16 0.00 0.00
7:53 pm 19:53 Sunny 51 10.6 26 -3.3 38 38 NW 13 20 30.09 1019 10 16 0.00 0.00
8:53 pm 20:53 Clear 48 8.9 25 -3.9 41 41 NNW 7 11 30.12 1020 10 16 0.00 0.00
9:53 pm 21:53 Clear 46 7.8 25 -3.9 44 44 N 10 17 30.14 1021 10 16 0.00 0.00
10:53 pm 22:53 Clear 44 6.7 24 -4.4 45 45 N 9 15 30.17 1022 10 16 0.00 0.00
11:53 pm 23:53 Clear 43 6.1 24 -4.4 47 47 Calm 30.18 1022 10 16 0.00 0.00

Powered by AerisWeather